Time,TemperatureF,DewpointF,PressureIn,WindDirection,WindDirectionDegrees,WindSpeedMPH,WindSpeedGustMPH,Humidity,HourlyPrecipIn,Conditions,Clouds,dailyrainin,SoftwareType,DateUTC
2013-02-07 00:01:00,28.4,25.6,30.01,SW,225,0.0,0.0,89,0.00,CLR,,0.00,WeatherDisplay:10.37,2013-02-07 06:01:00,
2013-02-07 00:06:00,28.4,25.6,30.01,SE,135,0.0,0.0,89,0.00,CLR,,0.00,WeatherDisplay:10.37,2013-02-07 06:06:00,
2013-02-07 00:11:00,28.4,25.6,30.01,ENE,68,0.0,0.0,89,0.00,CLR,,0.00,WeatherDisplay:10.37,2013-02-07 06:11:00,
2013-02-07 00:16:00,28.4,25.3,30.01,ENE,68,0.0,0.0,88,0.00,CLR,,0.00,WeatherDisplay:10.37,2013-02-07 06:16:00,
2013-02-07 00:21:00,28.4,25.3,30.01,ENE,68,0.0,0.0,88,0.00,CLR,,0.00,WeatherDisplay:10.37,2013-02-07 06:21:00,
2013-02-07 00:26:00,28.4,25.3,30.01,ENE,68,0.0,0.0,88,0.00,CLR,,0.00,WeatherDisplay:10.37,2013-02-07 06:26:00,
2013-02-07 00:31:00,28.4,25.3,30.01,NNW,338,0.9,1.1,88,0.00,CLR,,0.00,WeatherDisplay:10.37,2013-02-07 06:31:00,
2013-02-07 00:36:00,28.4,25.3,30.01,NNW,338,0.0,0.0,88,0.00,CLR,,0.00,WeatherDisplay:10.37,2013-02-07 06:36:00,
2013-02-07 00:41:00,28.6,25.5,30.01,NNW,338,0.0,0.0,88,0.00,CLR,,0.00,WeatherDisplay:10.37,2013-02-07 06:41:00,
2013-02-07 00:46:00,28.6,25.5,30.01,WSW,248,0.0,0.0,88,0.00,CLR,,0.00,WeatherDisplay:10.37,2013-02-07 06:46:00,
2013-02-07 00:51:00,28.6,25.5,30.01,WSW,248,0.0,0.0,88,0.00,CLR,,0.00,WeatherDisplay:10.37,2013-02-07 06:51:00,
2013-02-07 00:56:00,28.6,25.5,30.01,SSE,158,0.0,0.0,88,0.00,CLR,,0.00,WeatherDisplay:10.37,2013-02-07 06:56:00,
2013-02-07 01:02:00,28.6,25.5,30.01,SSW,202,0.0,0.0,88,0.00,CLR,,0.00,WeatherDisplay:10.37,2013-02-07 07:02:00,
2013-02-07 01:07:00,28.8,25.7,30.01,SSW,202,0.0,0.0,88,0.00,CLR,,0.00,WeatherDisplay:10.37,2013-02-07 07:07:00,
2013-02-07 01:12:00,28.8,25.7,30.01,WSW,248,0.0,0.0,88,0.00,CLR,,0.00,WeatherDisplay:10.37,2013-02-07 07:12:00,
2013-02-07 01:17:00,28.8,25.7,30.01,South,180,0.9,0.0,88,0.00,CLR,,0.00,WeatherDisplay:10.37,2013-02-07 07:17:00,
2013-02-07 01:22:00,28.8,25.7,30.01,South,180,0.0,2.0,88,0.00,CLR,,0.00,WeatherDisplay:10.37,2013-02-07 07:22:00,
2013-02-07 01:27:00,28.8,25.7,29.98,SE,135,0.0,2.4,88,0.00,CLR,,0.00,WeatherDisplay:10.37,2013-02-07 07:27:00,
2013-02-07 01:32:00,28.8,25.7,29.98,ESE,112,0.9,2.6,88,0.00,CLR,,0.00,WeatherDisplay:10.37,2013-02-07 07:32:00,
2013-02-07 01:37:00,28.8,25.9,29.98,ESE,112,0.0,1.1,89,0.00,CLR,,0.00,WeatherDisplay:10.37,2013-02-07 07:37:00,
2013-02-07 01:42:00,28.8,25.9,30.01,East,90,1.1,1.6,89,0.00,CLR,,0.00,WeatherDisplay:10.37,2013-02-07 07:42:00,
2013-02-07 01:47:00,28.8,25.9,30.01,SE,135,0.0,0.0,89,0.00,CLR,,0.00,WeatherDisplay:10.37,2013-02-07 07:47:00,
2013-02-07 01:52:00,28.8,25.9,30.01,East,90,0.0,0.0,89,0.00,CLR,,0.00,WeatherDisplay:10.37,2013-02-07 07:52:00,
2013-02-07 01:57:00,28.8,25.9,30.01,ENE,68,0.0,0.0,89,0.00,CLR,,0.00,WeatherDisplay:10.37,2013-02-07 07:57:00,
2013-02-07 02:02:00,28.9,26.1,30.01,ENE,69,0.0,0.0,89,0.00,CLR,,0.00,WeatherDisplay:10.37,2013-02-07 08:02:00,
2013-02-07 02:07:00,28.9,26.1,30.01,ENE,65,0.0,0.0,89,0.00,CLR,,0.00,WeatherDisplay:10.37,2013-02-07 08:07:00,
2013-02-07 02:12:00,28.9,26.1,30.01,North,0,0.0,0.0,89,0.00,CLR,,0.00,WeatherDisplay:10.37,2013-02-07 08:12:00,
2013-02-07 02:17:00,29.1,26.3,30.01,NNE,16,0.0,0.0,89,0.00,CLR,,0.00,WeatherDisplay:10.37,2013-02-07 08:17:00,
2013-02-07 02:22:00,29.1,26.3,30.01,North,0,0.0,0.0,89,0.00,CLR,,0.00,WeatherDisplay:10.37,2013-02-07 08:22:00,
2013-02-07 02:27:00,29.3,26.5,30.01,North,0,0.0,0.0,89,0.00,CLR,,0.00,WeatherDisplay:10.37,2013-02-07 08:27:00,
2013-02-07 02:32:00,29.3,26.5,30.01,North,0,0.0,0.0,89,0.00,CLR,,0.00,WeatherDisplay:10.37,2013-02-07 08:32:00,
2013-02-07 02:37:00,29.3,26.2,30.01,North,0,0.0,0.0,88,0.00,CLR,,0.00,WeatherDisplay:10.37,2013-02-07 08:37:00,
2013-02-07 02:42:00,29.5,26.4,29.98,North,0,0.0,0.0,88,0.00,CLR,,0.00,WeatherDisplay:10.37,2013-02-07 08:42:00,
2013-02-07 02:47:00,29.5,26.4,29.98,NNE,22,0.0,0.0,88,0.00,CLR,,0.00,WeatherDisplay:10.37,2013-02-07 08:47:00,
2013-02-07 02:52:00,29.3,26.2,29.98,NNE,13,0.0,1.0,88,0.00,CLR,,0.00,WeatherDisplay:10.37,2013-02-07 08:52:00,
2013-02-07 02:57:00,29.3,26.2,29.98,NNW,338,1.4,3.5,88,0.00,CLR,,0.00,WeatherDisplay:10.37,2013-02-07 08:57:00,
2013-02-07 03:02:00,29.1,26.0,29.98,NNE,22,0.0,0.0,88,0.00,CLR,,0.00,WeatherDisplay:10.37,2013-02-07 09:02:00,
2013-02-07 03:07:00,29.1,26.0,29.98,NNE,22,0.0,0.0,88,0.00,CLR,,0.00,WeatherDisplay:10.37,2013-02-07 09:07:00,
2013-02-07 03:12:00,28.9,25.8,29.98,NNE,22,0.0,0.0,88,0.00,CLR,,0.00,WeatherDisplay:10.37,2013-02-07 09:12:00,
2013-02-07 03:17:00,28.9,25.8,29.98,NNE,22,1.1,2.3,88,0.00,CLR,,0.00,WeatherDisplay:10.37,2013-02-07 09:17:00,
2013-02-07 03:22:00,28.8,25.7,29.98,NE,45,0.0,0.0,88,0.00,CLR,,0.00,WeatherDisplay:10.37,2013-02-07 09:22:00,
2013-02-07 03:27:00,28.8,25.7,29.95,NNE,22,0.0,0.0,88,0.00,CLR,,0.00,WeatherDisplay:10.37,2013-02-07 09:27:00,
2013-02-07 03:32:00,28.8,25.7,29.95,NNE,22,0.0,0.0,88,0.00,CLR,,0.00,WeatherDisplay:10.37,2013-02-07 09:32:00,
2013-02-07 03:37:00,28.8,25.7,29.95,NNE,22,0.0,2.3,88,0.00,CLR,,0.00,WeatherDisplay:10.37,2013-02-07 09:37:00,
2013-02-07 03:42:00,28.8,25.7,29.98,NNE,22,1.1,2.3,88,0.00,CLR,,0.00,WeatherDisplay:10.37,2013-02-07 09:42:00,
2013-02-07 03:47:00,28.8,25.7,29.98,NNE,22,1.1,1.1,88,0.00,CLR,,0.00,WeatherDisplay:10.37,2013-02-07 09:47:00,
2013-02-07 03:52:00,28.8,25.7,29.98,NNE,22,1.4,2.3,88,0.00,CLR,,0.00,WeatherDisplay:10.37,2013-02-07 09:52:00,
2013-02-07 03:57:00,28.8,25.7,29.95,North,0,0.0,0.0,88,0.00,CLR,,0.00,WeatherDisplay:10.37,2013-02-07 09:57:00,
2013-02-07 04:02:00,28.8,25.7,29.95,North,0,0.0,0.0,88,0.00,CLR,,0.00,WeatherDisplay:10.37,2013-02-07 10:02:00,
2013-02-07 04:07:00,28.8,25.7,29.95,NNE,22,0.0,0.0,88,0.00,CLR,,0.00,WeatherDisplay:10.37,2013-02-07 10:07:00,
2013-02-07 04:12:00,28.8,25.7,29.95,North,0,1.1,1.6,88,0.00,CLR,,0.00,WeatherDisplay:10.37,2013-02-07 10:12:00,
2013-02-07 04:17:00,28.8,25.7,29.95,North,0,1.4,2.3,88,0.00,CLR,,0.00,WeatherDisplay:10.37,2013-02-07 10:17:00,
2013-02-07 04:22:00,28.8,25.7,29.95,North,0,1.4,2.3,88,0.00,CLR,,0.00,WeatherDisplay:10.37,2013-02-07 10:22:00,
2013-02-07 04:27:00,28.8,25.7,29.98,NNE,22,0.0,0.0,88,0.00,CLR,,0.00,WeatherDisplay:10.37,2013-02-07 10:27:00,
2013-02-07 04:32:00,28.8,25.7,29.98,NNE,22,0.9,1.1,88,0.00,CLR,,0.00,WeatherDisplay:10.37,2013-02-07 10:32:00,
2013-02-07 04:37:00,28.9,25.8,29.98,North,0,1.1,1.1,88,0.00,CLR,,0.00,WeatherDisplay:10.37,2013-02-07 10:37:00,
2013-02-07 04:42:00,28.9,25.8,29.95,North,0,0.0,0.0,88,0.00,CLR,,0.00,WeatherDisplay:10.37,2013-02-07 10:42:00,
2013-02-07 04:47:00,28.9,25.8,29.95,North,0,0.0,0.0,88,0.00,CLR,,0.00,WeatherDisplay:10.37,2013-02-07 10:47:00,
2013-02-07 04:52:00,28.9,25.8,29.95,NNE,22,0.0,0.0,88,0.00,CLR,,0.00,WeatherDisplay:10.37,2013-02-07 10:52:00,
2013-02-07 04:57:00,28.9,25.8,29.95,ENE,68,0.0,0.0,88,0.00,CLR,,0.00,WeatherDisplay:10.37,2013-02-07 10:57:00,
2013-02-07 05:02:00,28.9,25.8,29.95,NE,45,0.0,0.0,88,0.00,CLR,,0.00,WeatherDisplay:10.37,2013-02-07 11:02:00,
2013-02-07 05:07:00,28.9,25.8,29.95,NE,45,0.0,0.0,88,0.00,CLR,,0.00,WeatherDisplay:10.37,2013-02-07 11:07:00,
2013-02-07 05:12:00,28.9,25.8,29.95,NE,45,0.0,0.0,88,0.00,CLR,,0.00,WeatherDisplay:10.37,2013-02-07 11:12:00,
2013-02-07 05:17:00,29.1,26.0,29.95,NNE,22,0.0,0.0,88,0.00,CLR,,0.00,WeatherDisplay:10.37,2013-02-07 11:17:00,
2013-02-07 05:22:00,29.1,26.0,29.95,NNE,22,0.0,0.0,88,0.00,CLR,,0.00,WeatherDisplay:10.37,2013-02-07 11:22:00,
2013-02-07 05:27:00,29.1,26.0,29.95,NNE,22,0.0,0.0,88,0.00,CLR,,0.00,WeatherDisplay:10.37,2013-02-07 11:27:00,
2013-02-07 05:32:00,29.1,26.0,29.95,NNE,22,0.0,0.0,88,0.00,CLR,,0.00,WeatherDisplay:10.37,2013-02-07 11:32:00,
2013-02-07 05:37:00,29.1,26.0,29.95,NNE,22,0.0,0.0,88,0.00,CLR,,0.00,WeatherDisplay:10.37,2013-02-07 11:37:00,
2013-02-07 05:42:00,29.3,26.2,29.95,NNE,22,0.0,0.0,88,0.00,CLR,,0.00,WeatherDisplay:10.37,2013-02-07 11:42:00,
2013-02-07 05:47:00,29.3,26.2,29.95,NNE,22,0.0,0.0,88,0.00,CLR,,0.00,WeatherDisplay:10.37,2013-02-07 11:47:00,
2013-02-07 05:52:00,29.3,26.2,29.95,NE,45,0.0,0.0,88,0.00,CLR,,0.00,WeatherDisplay:10.37,2013-02-07 11:52:00,
2013-02-07 05:57:00,29.5,26.4,29.95,East,90,0.0,0.0,88,0.00,CLR,,0.00,WeatherDisplay:10.37,2013-02-07 11:57:00,
2013-02-07 06:02:00,29.5,26.4,29.95,East,90,0.0,0.0,88,0.00,CLR,,0.00,WeatherDisplay:10.37,2013-02-07 12:02:00,
2013-02-07 06:07:00,29.5,26.6,29.95,East,90,0.0,0.0,89,0.00,CLR,,0.00,WeatherDisplay:10.37,2013-02-07 12:07:00,
2013-02-07 06:12:00,29.5,26.6,29.95,East,90,0.0,0.0,89,0.00,CLR,,0.00,WeatherDisplay:10.37,2013-02-07 12:12:00,
2013-02-07 06:17:00,29.5,26.6,29.95,NE,45,0.0,0.0,89,0.00,CLR,,0.00,WeatherDisplay:10.37,2013-02-07 12:17:00,
2013-02-07 06:22:00,29.5,26.6,29.95,NE,45,0.0,0.0,89,0.00,CLR,,0.00,WeatherDisplay:10.37,2013-02-07 12:22:00,
2013-02-07 06:27:00,29.5,26.6,29.95,NE,45,0.0,0.0,89,0.00,CLR,,0.00,WeatherDisplay:10.37,2013-02-07 12:27:00,
2013-02-07 06:32:00,29.5,26.4,29.95,NE,45,0.0,0.0,88,0.00,CLR,,0.00,WeatherDisplay:10.37,2013-02-07 12:32:00,
2013-02-07 06:37:00,29.5,26.4,29.95,NE,45,0.0,0.0,88,0.00,CLR,,0.00,WeatherDisplay:10.37,2013-02-07 12:37:00,
2013-02-07 06:42:00,29.5,26.4,29.95,NNE,22,0.0,0.0,88,0.00,CLR,,0.00,WeatherDisplay:10.37,2013-02-07 12:42:00,
2013-02-07 06:48:00,29.5,26.4,29.95,NNE,22,0.0,0.0,88,0.00,CLR,,0.00,WeatherDisplay:10.37,2013-02-07 12:48:00,
2013-02-07 06:53:00,29.5,26.4,29.95,North,0,1.1,1.1,88,0.00,CLR,,0.00,WeatherDisplay:10.37,2013-02-07 12:53:00,
2013-02-07 06:58:00,29.5,26.6,29.95,NNE,22,0.0,0.0,89,0.00,CLR,,0.00,WeatherDisplay:10.37,2013-02-07 12:58:00,
2013-02-07 07:03:00,29.5,26.6,29.95,NNE,22,0.0,0.0,89,0.00,CLR,,0.00,WeatherDisplay:10.37,2013-02-07 13:03:00,
2013-02-07 07:08:00,29.5,26.6,29.95,NNE,22,0.0,0.0,89,0.00,CLR,,0.00,WeatherDisplay:10.37,2013-02-07 13:08:00,
2013-02-07 07:13:00,29.5,26.6,29.95,NNW,338,1.4,2.3,89,0.00,CLR,,0.00,WeatherDisplay:10.37,2013-02-07 13:13:00,
2013-02-07 07:18:00,29.5,26.6,29.95,North,0,0.0,0.0,89,0.00,CLR,,0.00,WeatherDisplay:10.37,2013-02-07 13:18:00,
2013-02-07 07:23:00,29.5,26.6,29.95,NNE,22,0.0,2.3,89,0.00,CLR,,0.00,WeatherDisplay:10.37,2013-02-07 13:23:00,
2013-02-07 07:28:00,29.7,27.1,29.95,NW,315,0.9,2.3,90,0.00,CLR,,0.00,WeatherDisplay:10.37,2013-02-07 13:28:00,
2013-02-07 07:33:00,29.7,27.1,29.95,NNE,22,0.0,0.0,90,0.00,CLR,,0.00,WeatherDisplay:10.37,2013-02-07 13:33:00,
2013-02-07 07:38:00,29.8,27.3,29.95,NNW,338,2.0,2.3,90,0.00,CLR,,0.00,WeatherDisplay:10.37,2013-02-07 13:38:00,
2013-02-07 07:43:00,30.0,27.4,29.95,North,0,0.0,0.0,90,0.00,CLR,,0.00,WeatherDisplay:10.37,2013-02-07 13:43:00,
2013-02-07 07:48:00,30.2,27.6,29.95,North,0,0.0,0.0,90,0.00,CLR,,0.00,WeatherDisplay:10.37,2013-02-07 13:48:00,
2013-02-07 07:53:00,30.2,27.6,29.95,North,0,0.0,0.0,90,0.00,CLR,,0.00,WeatherDisplay:10.37,2013-02-07 13:53:00,
2013-02-07 07:58:00,30.2,27.6,29.95,NNE,22,2.2,2.3,90,0.00,CLR,,0.00,WeatherDisplay:10.37,2013-02-07 13:58:00,
2013-02-07 08:03:00,30.2,27.6,29.95,North,0,0.9,2.3,90,0.00,CLR,,0.00,WeatherDisplay:10.37,2013-02-07 14:03:00,
2013-02-07 08:08:00,30.2,27.6,29.95,North,0,0.9,2.3,90,0.00,CLR,,0.00,WeatherDisplay:10.37,2013-02-07 14:08:00,
2013-02-07 08:13:00,30.4,27.8,29.95,North,0,0.0,0.0,90,0.00,CLR,,0.00,WeatherDisplay:10.37,2013-02-07 14:13:00,
2013-02-07 08:18:00,30.6,28.0,29.95,North,0,0.0,0.0,90,0.00,CLR,,0.00,WeatherDisplay:10.37,2013-02-07 14:18:00,
2013-02-07 08:23:00,30.7,28.2,29.95,NNE,22,2.0,3.5,90,0.00,CLR,,0.00,WeatherDisplay:10.37,2013-02-07 14:23:00,
2013-02-07 08:28:00,30.7,28.2,29.95,NNE,22,0.0,0.0,90,0.00,CLR,,0.00,WeatherDisplay:10.37,2013-02-07 14:28:00,
2013-02-07 08:33:00,30.9,28.3,29.95,North,0,0.0,0.0,90,0.00,CLR,,0.00,WeatherDisplay:10.37,2013-02-07 14:33:00,
2013-02-07 08:38:00,31.1,28.5,29.95,North,0,0.0,0.0,90,0.00,CLR,,0.00,WeatherDisplay:10.37,2013-02-07 14:38:00,
2013-02-07 08:43:00,31.3,28.7,29.95,North,0,0.0,0.0,90,0.00,CLR,,0.00,WeatherDisplay:10.37,2013-02-07 14:43:00,
2013-02-07 08:48:00,31.6,29.0,29.95,NNW,338,0.0,0.0,90,0.00,CLR,,0.00,WeatherDisplay:10.37,2013-02-07 14:48:00,
2013-02-07 08:53:00,31.6,29.0,29.95,NNW,338,0.0,0.0,90,0.00,CLR,,0.00,WeatherDisplay:10.37,2013-02-07 14:53:00,
2013-02-07 08:58:00,31.6,28.8,29.95,North,0,1.1,2.3,89,0.00,CLR,,0.00,WeatherDisplay:10.37,2013-02-07 14:58:00,
2013-02-07 09:03:00,31.8,28.9,29.95,NW,315,0.0,1.1,89,0.00,CLR,,0.00,WeatherDisplay:10.37,2013-02-07 15:03:00,
2013-02-07 09:08:00,31.8,28.9,29.95,NE,45,2.4,2.4,89,0.00,CLR,,0.00,WeatherDisplay:10.37,2013-02-07 15:08:00,
2013-02-07 09:13:00,31.6,28.8,29.98,NNW,338,1.6,2.3,89,0.00,CLR,,0.00,WeatherDisplay:10.37,2013-02-07 15:13:00,
2013-02-07 09:18:00,31.8,28.9,29.98,North,0,0.9,1.1,89,0.00,CLR,,0.00,WeatherDisplay:10.37,2013-02-07 15:18:00,
2013-02-07 09:23:00,31.8,28.9,29.98,North,0,2.0,2.3,89,0.00,CLR,,0.00,WeatherDisplay:10.37,2013-02-07 15:23:00,
2013-02-07 09:28:00,32.0,29.1,30.01,North,0,2.0,2.4,89,0.00,CLR,,0.00,WeatherDisplay:10.37,2013-02-07 15:28:00,
2013-02-07 09:33:00,32.0,29.1,30.01,NNW,338,2.9,3.5,89,0.00,CLR,,0.00,WeatherDisplay:10.37,2013-02-07 15:33:00,
2013-02-07 09:38:00,32.0,29.1,30.01,NE,45,2.2,3.1,89,0.00,CLR,,0.00,WeatherDisplay:10.37,2013-02-07 15:38:00,
2013-02-07 09:43:00,31.8,28.9,29.98,NNW,338,4.3,5.8,89,0.00,CLR,,0.00,WeatherDisplay:10.37,2013-02-07 15:43:00,
2013-02-07 09:48:00,31.8,28.7,29.98,NNE,22,3.3,3.5,88,0.00,CLR,,0.00,WeatherDisplay:10.37,2013-02-07 15:48:00,
2013-02-07 09:53:00,32.0,28.8,29.98,North,0,3.1,3.6,88,0.00,CLR,,0.00,WeatherDisplay:10.37,2013-02-07 15:53:00,
2013-02-07 09:58:00,32.2,29.0,29.98,North,0,1.6,2.3,88,0.00,CLR,,0.00,WeatherDisplay:10.37,2013-02-07 15:58:00,
2013-02-07 10:03:00,32.5,29.4,29.98,NNW,338,0.0,0.0,88,0.00,CLR,,0.00,WeatherDisplay:10.37,2013-02-07 16:03:00,
2013-02-07 10:08:00,32.7,29.6,29.98,NNE,22,2.0,2.3,88,0.00,CLR,,0.00,WeatherDisplay:10.37,2013-02-07 16:08:00,
2013-02-07 10:13:00,33.3,30.1,29.98,NNE,22,0.0,0.0,88,0.00,CLR,,0.00,WeatherDisplay:10.37,2013-02-07 16:13:00,
2013-02-07 10:18:00,33.1,29.6,29.98,North,0,2.6,4.6,87,0.00,CLR,,0.00,WeatherDisplay:10.37,2013-02-07 16:18:00,
2013-02-07 10:23:00,32.7,29.3,29.98,North,0,3.3,3.5,87,0.00,CLR,,0.00,WeatherDisplay:10.37,2013-02-07 16:23:00,
2013-02-07 10:28:00,33.1,29.6,30.01,North,0,2.2,3.3,87,0.00,CLR,,0.00,WeatherDisplay:10.37,2013-02-07 16:28:00,
2013-02-07 10:33:00,33.1,29.3,30.01,NNW,338,2.6,3.5,86,0.00,CLR,,0.00,WeatherDisplay:10.37,2013-02-07 16:33:00,
2013-02-07 10:38:00,33.1,29.3,30.01,North,0,3.1,3.8,86,0.00,CLR,,0.00,WeatherDisplay:10.37,2013-02-07 16:38:00,
2013-02-07 10:43:00,32.7,28.7,30.01,NNW,338,3.6,4.6,85,0.00,CLR,,0.00,WeatherDisplay:10.37,2013-02-07 16:43:00,
2013-02-07 10:48:00,32.7,29.0,30.01,North,0,3.3,4.6,86,0.00,CLR,,0.00,WeatherDisplay:10.37,2013-02-07 16:48:00,
2013-02-07 10:54:00,32.9,29.2,30.01,North,0,3.3,3.5,86,0.00,CLR,,0.00,WeatherDisplay:10.37,2013-02-07 16:54:00,
2013-02-07 10:59:00,33.3,29.5,29.98,NNE,22,0.0,2.3,86,0.00,CLR,,0.00,WeatherDisplay:10.37,2013-02-07 16:59:00,
2013-02-07 11:04:00,33.6,29.9,29.98,East,90,0.0,2.4,86,0.00,CLR,,0.00,WeatherDisplay:10.37,2013-02-07 17:04:00,
2013-02-07 11:09:00,33.6,29.9,29.98,NE,45,0.0,0.0,86,0.00,CLR,,0.00,WeatherDisplay:10.37,2013-02-07 17:09:00,
2013-02-07 11:14:00,33.8,30.1,29.98,East,90,0.0,0.0,86,0.00,CLR,,0.00,WeatherDisplay:10.37,2013-02-07 17:14:00,
2013-02-07 11:19:00,33.6,29.9,29.98,NE,45,2.4,3.5,86,0.00,CLR,,0.00,WeatherDisplay:10.37,2013-02-07 17:19:00,
2013-02-07 11:24:00,33.8,30.1,29.98,ENE,68,0.9,2.9,86,0.00,CLR,,0.00,WeatherDisplay:10.37,2013-02-07 17:24:00,
2013-02-07 11:29:00,33.6,29.9,29.98,NE,45,2.9,3.5,86,0.00,CLR,,0.00,WeatherDisplay:10.37,2013-02-07 17:29:00,
2013-02-07 11:34:00,33.6,29.9,29.98,ENE,68,2.9,2.9,86,0.00,CLR,,0.00,WeatherDisplay:10.37,2013-02-07 17:34:00,
2013-02-07 11:39:00,34.0,30.2,29.98,North,0,1.1,2.3,86,0.00,CLR,,0.00,WeatherDisplay:10.37,2013-02-07 17:39:00,
2013-02-07 11:44:00,34.2,30.4,29.95,North,0,2.6,2.6,86,0.00,CLR,,0.00,WeatherDisplay:10.37,2013-02-07 17:44:00,
2013-02-07 11:49:00,34.0,30.2,29.95,North,0,3.8,4.9,86,0.00,CLR,,0.00,WeatherDisplay:10.37,2013-02-07 17:49:00,
2013-02-07 11:54:00,34.2,30.1,29.95,North,0,2.6,4.0,85,0.00,CLR,,0.00,WeatherDisplay:10.37,2013-02-07 17:54:00,
2013-02-07 11:59:00,34.3,30.3,29.95,NNE,22,3.3,4.6,85,0.00,CLR,,0.00,WeatherDisplay:10.37,2013-02-07 17:59:00,
2013-02-07 12:04:00,34.3,30.0,29.95,North,0,2.6,3.5,84,0.00,CLR,,0.00,WeatherDisplay:10.37,2013-02-07 18:04:00,
2013-02-07 12:09:00,34.2,29.8,29.95,NNW,338,4.0,5.8,84,0.00,CLR,,0.00,WeatherDisplay:10.37,2013-02-07 18:09:00,
2013-02-07 12:14:00,34.0,29.4,29.95,NNE,22,2.9,4.6,83,0.00,CLR,,0.00,WeatherDisplay:10.37,2013-02-07 18:14:00,
2013-02-07 12:19:00,34.0,29.4,29.95,NE,45,2.4,4.6,83,0.00,CLR,,0.00,WeatherDisplay:10.37,2013-02-07 18:19:00,
2013-02-07 12:24:00,34.0,29.4,29.95,NNE,22,3.6,5.8,83,0.00,CLR,,0.00,WeatherDisplay:10.37,2013-02-07 18:24:00,
2013-02-07 12:29:00,33.8,28.9,29.95,NNE,22,4.0,5.8,82,0.00,CLR,,0.00,WeatherDisplay:10.37,2013-02-07 18:29:00,
2013-02-07 12:34:00,33.6,29.0,29.95,North,0,3.3,4.6,83,0.00,CLR,,0.00,WeatherDisplay:10.37,2013-02-07 18:34:00,
2013-02-07 12:39:00,33.8,29.2,29.95,NNE,22,3.6,3.8,83,0.00,CLR,,0.00,WeatherDisplay:10.37,2013-02-07 18:39:00,
2013-02-07 12:44:00,33.6,28.7,29.95,NNE,22,4.9,5.9,82,0.00,CLR,,0.00,WeatherDisplay:10.37,2013-02-07 18:44:00,
2013-02-07 12:49:00,33.4,28.5,29.95,North,0,6.0,6.9,82,0.00,CLR,,0.00,WeatherDisplay:10.37,2013-02-07 18:49:00,
2013-02-07 12:54:00,33.4,28.5,29.95,NE,45,5.6,6.9,82,0.00,CLR,,0.00,WeatherDisplay:10.37,2013-02-07 18:54:00,
2013-02-07 12:59:00,33.6,29.0,29.95,NNE,22,3.1,4.3,83,0.00,CLR,,0.00,WeatherDisplay:10.37,2013-02-07 18:59:00,
2013-02-07 13:04:00,33.1,28.2,29.95,NE,45,4.9,6.2,82,0.00,CLR,,0.00,WeatherDisplay:10.37,2013-02-07 19:04:00,
2013-02-07 13:09:00,32.9,28.0,29.95,North,0,4.0,5.8,82,0.00,CLR,,0.00,WeatherDisplay:10.37,2013-02-07 19:09:00,
2013-02-07 13:14:00,32.7,27.5,29.92,NE,45,3.8,4.6,81,0.00,CLR,,0.00,WeatherDisplay:10.37,2013-02-07 19:14:00,
2013-02-07 13:19:00,32.5,27.7,29.92,North,0,3.8,7.6,82,0.00,CLR,,0.00,WeatherDisplay:10.37,2013-02-07 19:19:00,
2013-02-07 13:24:00,32.0,26.8,29.92,NNE,22,4.7,6.0,81,0.00,CLR,,0.00,WeatherDisplay:10.37,2013-02-07 19:24:00,
2013-02-07 13:29:00,31.6,26.5,29.95,NNE,22,5.4,5.8,81,0.00,CLR,,0.00,WeatherDisplay:10.37,2013-02-07 19:29:00,
2013-02-07 13:34:00,31.3,25.5,29.95,NNE,22,4.5,8.1,79,0.00,CLR,,0.00,WeatherDisplay:10.37,2013-02-07 19:34:00,
2013-02-07 13:39:00,31.1,25.3,29.95,NE,45,4.7,5.8,79,0.00,CLR,,0.00,WeatherDisplay:10.37,2013-02-07 19:39:00,
2013-02-07 13:44:00,30.7,25.0,29.95,NNE,22,6.7,8.1,79,0.00,CLR,,0.00,WeatherDisplay:10.37,2013-02-07 19:44:00,
2013-02-07 13:49:00,30.9,25.2,29.95,NNW,338,4.3,6.9,79,0.00,CLR,,0.00,WeatherDisplay:10.37,2013-02-07 19:49:00,
2013-02-07 13:54:00,31.1,25.3,29.95,NE,45,4.3,5.8,79,0.00,CLR,,0.00,WeatherDisplay:10.37,2013-02-07 19:54:00,
2013-02-07 13:59:00,30.9,24.9,29.95,NNE,22,3.3,4.6,78,0.00,CLR,,0.00,WeatherDisplay:10.37,2013-02-07 19:59:00,
2013-02-07 14:04:00,30.4,24.3,29.95,NNE,22,4.5,5.9,78,0.00,CLR,,0.00,WeatherDisplay:10.37,2013-02-07 20:04:00,
2013-02-07 14:09:00,30.2,24.5,29.95,NNE,22,3.3,5.8,79,0.00,CLR,,0.00,WeatherDisplay:10.37,2013-02-07 20:09:00,
2013-02-07 14:14:00,30.0,24.3,29.95,North,0,3.8,5.8,79,0.00,CLR,,0.00,WeatherDisplay:10.37,2013-02-07 20:14:00,
2013-02-07 14:19:00,29.8,24.1,29.95,North,0,4.3,6.9,79,0.00,CLR,,0.00,WeatherDisplay:10.37,2013-02-07 20:19:00,
2013-02-07 14:24:00,29.7,24.2,29.95,North,0,4.3,4.6,80,0.00,CLR,,0.00,WeatherDisplay:10.37,2013-02-07 20:24:00,
2013-02-07 14:29:00,30.0,24.6,29.95,North,0,3.1,4.6,80,0.00,CLR,,0.00,WeatherDisplay:10.37,2013-02-07 20:29:00,
2013-02-07 14:34:00,29.5,23.8,29.95,NNE,22,4.0,6.9,79,0.00,CLR,,0.00,WeatherDisplay:10.37,2013-02-07 20:34:00,
2013-02-07 14:39:00,29.5,24.1,29.95,NNE,22,3.1,3.3,80,0.00,CLR,,0.00,WeatherDisplay:10.37,2013-02-07 20:39:00,
2013-02-07 14:44:00,29.3,24.2,29.95,North,0,3.8,4.9,81,0.00,CLR,,0.00,WeatherDisplay:10.37,2013-02-07 20:44:00,
2013-02-07 14:49:00,29.1,24.3,29.95,NNE,22,4.3,4.6,82,0.00,CLR,,0.00,WeatherDisplay:10.37,2013-02-07 20:49:00,
2013-02-07 14:54:00,29.3,24.5,29.95,NE,45,4.0,4.6,82,0.00,CLR,,0.00,WeatherDisplay:10.37,2013-02-07 20:54:00,
2013-02-07 14:59:00,29.5,24.7,29.95,NNE,22,3.8,3.8,82,0.00,CLR,,0.00,WeatherDisplay:10.37,2013-02-07 20:59:00,
2013-02-07 15:04:00,29.5,25.0,29.95,WNW,292,2.6,3.5,83,0.00,CLR,,0.00,WeatherDisplay:10.37,2013-02-07 21:04:00,
2013-02-07 15:09:00,29.7,25.1,29.95,NNW,338,3.1,4.3,83,0.00,CLR,,0.00,WeatherDisplay:10.37,2013-02-07 21:09:00,
2013-02-07 15:14:00,29.7,25.1,29.95,NNE,22,3.3,4.6,83,0.00,CLR,,0.00,WeatherDisplay:10.37,2013-02-07 21:14:00,
2013-02-07 15:19:00,29.7,25.1,29.95,NE,45,3.1,4.6,83,0.00,CLR,,0.00,WeatherDisplay:10.37,2013-02-07 21:19:00,
2013-02-07 15:24:00,29.7,25.1,29.95,NNE,22,3.1,4.6,83,0.00,CLR,,0.00,WeatherDisplay:10.37,2013-02-07 21:24:00,
2013-02-07 15:29:00,29.7,25.1,29.95,NNE,22,3.8,5.8,83,0.00,CLR,,0.00,WeatherDisplay:10.37,2013-02-07 21:29:00,
2013-02-07 15:34:00,29.5,25.0,29.95,North,0,3.1,3.5,83,0.00,CLR,,0.00,WeatherDisplay:10.37,2013-02-07 21:34:00,
2013-02-07 15:39:00,29.3,24.8,29.95,North,0,4.3,5.8,83,0.00,CLR,,0.00,WeatherDisplay:10.37,2013-02-07 21:39:00,
2013-02-07 15:44:00,29.1,24.6,29.95,North,0,4.0,4.6,83,0.00,CLR,,0.00,WeatherDisplay:10.37,2013-02-07 21:44:00,
2013-02-07 15:49:00,29.1,24.6,29.95,North,0,3.8,4.6,83,0.00,CLR,,0.00,WeatherDisplay:10.37,2013-02-07 21:49:00,
2013-02-07 15:54:00,28.9,24.7,29.95,NW,315,5.6,5.8,84,0.00,CLR,,0.00,WeatherDisplay:10.37,2013-02-07 21:54:00,
2013-02-07 15:59:00,28.8,24.8,29.95,NNE,22,4.7,6.9,85,0.00,CLR,,0.00,WeatherDisplay:10.37,2013-02-07 21:59:00,
2013-02-07 16:04:00,28.6,24.9,29.95,North,0,4.3,5.8,86,0.00,CLR,,0.00,WeatherDisplay:10.37,2013-02-07 22:04:00,
2013-02-07 16:09:00,28.6,24.9,29.95,NNE,22,4.9,6.9,86,0.00,CLR,,0.00,WeatherDisplay:10.37,2013-02-07 22:09:00,
2013-02-07 16:14:00,28.6,24.9,29.92,North,0,4.7,6.0,86,0.00,CLR,,0.00,WeatherDisplay:10.37,2013-02-07 22:14:00,
2013-02-07 16:19:00,28.6,24.9,29.92,NNW,338,4.3,5.8,86,0.00,CLR,,0.00,WeatherDisplay:10.37,2013-02-07 22:19:00,
2013-02-07 16:24:00,28.4,25.0,29.92,WNW,292,4.7,6.9,87,0.00,CLR,,0.00,WeatherDisplay:10.37,2013-02-07 22:24:00,
2013-02-07 16:29:00,28.2,24.8,29.95,NE,45,4.7,7.4,87,0.00,CLR,,0.00,WeatherDisplay:10.37,2013-02-07 22:29:00,
2013-02-07 16:34:00,28.2,24.8,29.95,WNW,292,6.7,8.1,87,0.00,CLR,,0.00,WeatherDisplay:10.37,2013-02-07 22:34:00,
2013-02-07 16:39:00,28.0,24.7,29.95,NNW,338,7.1,9.2,87,0.00,CLR,,0.00,WeatherDisplay:10.37,2013-02-07 22:39:00,
2013-02-07 16:44:00,28.0,24.9,29.95,North,0,5.6,5.8,88,0.00,CLR,,0.00,WeatherDisplay:10.37,2013-02-07 22:44:00,
2013-02-07 16:49:00,28.0,25.2,29.95,NNE,22,5.4,5.8,89,0.00,CLR,,0.00,WeatherDisplay:10.37,2013-02-07 22:49:00,
2013-02-07 16:54:00,28.0,25.2,29.95,NNW,338,4.7,5.8,89,0.00,CLR,,0.00,WeatherDisplay:10.37,2013-02-07 22:54:00,
2013-02-07 16:59:00,27.9,25.3,29.98,North,0,7.6,9.2,90,0.00,CLR,,0.00,WeatherDisplay:10.37,2013-02-07 22:59:00,
2013-02-07 17:04:00,27.9,25.3,29.98,NNW,338,5.6,9.2,90,0.00,CLR,,0.00,WeatherDisplay:10.37,2013-02-07 23:04:00,
2013-02-07 17:09:00,27.9,25.3,29.98,NNW,338,6.7,6.9,90,0.00,CLR,,0.00,WeatherDisplay:10.37,2013-02-07 23:09:00,
2013-02-07 17:14:00,27.7,24.9,29.98,NNW,338,5.4,6.0,89,0.00,CLR,,0.00,WeatherDisplay:10.37,2013-02-07 23:14:00,
2013-02-07 17:19:00,27.7,24.9,29.98,North,0,7.4,9.2,89,0.00,CLR,,0.00,WeatherDisplay:10.37,2013-02-07 23:19:00,
2013-02-07 17:24:00,27.5,24.7,29.98,North,0,5.6,6.9,89,0.00,CLR,,0.00,WeatherDisplay:10.37,2013-02-07 23:24:00,
2013-02-07 17:29:00,27.5,24.7,29.98,North,0,7.1,10.4,89,0.00,CLR,,0.00,WeatherDisplay:10.37,2013-02-07 23:29:00,
2013-02-07 17:34:00,27.5,24.7,29.98,NW,315,6.0,8.1,89,0.00,CLR,,0.00,WeatherDisplay:10.37,2013-02-07 23:34:00,
2013-02-07 17:39:00,27.5,24.7,30.01,NNW,338,5.6,6.2,89,0.00,CLR,,0.00,WeatherDisplay:10.37,2013-02-07 23:39:00,
2013-02-07 17:44:00,27.3,24.8,30.01,NW,315,6.9,9.2,90,0.00,CLR,,0.00,WeatherDisplay:10.37,2013-02-07 23:44:00,
2013-02-07 17:49:00,27.3,24.8,30.01,NNW,338,6.9,8.1,90,0.00,CLR,,0.00,WeatherDisplay:10.37,2013-02-07 23:49:00,
2013-02-07 17:54:00,27.1,24.6,30.01,NW,315,5.9,8.1,90,0.00,CLR,,0.00,WeatherDisplay:10.37,2013-02-07 23:54:00,
2013-02-07 17:59:00,27.1,24.6,30.01,NNE,22,9.2,9.2,90,0.00,CLR,,0.00,WeatherDisplay:10.37,2013-02-07 23:59:00,
2013-02-07 18:04:00,27.1,24.3,30.01,NW,315,5.4,10.0,89,0.00,CLR,,0.00,WeatherDisplay:10.37,2013-02-08 00:04:00,
2013-02-07 18:09:00,27.1,24.3,30.01,NNW,338,6.4,10.4,89,0.00,CLR,,0.00,WeatherDisplay:10.37,2013-02-08 00:09:00,
2013-02-07 18:14:00,27.0,23.9,30.01,NW,315,8.5,10.4,88,0.00,CLR,,0.00,WeatherDisplay:10.37,2013-02-08 00:14:00,
2013-02-07 18:19:00,27.0,23.9,30.01,North,0,8.7,10.4,88,0.00,CLR,,0.00,WeatherDisplay:10.37,2013-02-08 00:19:00,
2013-02-07 18:24:00,27.0,23.9,29.98,NNW,338,6.9,9.2,88,0.00,CLR,,0.00,WeatherDisplay:10.37,2013-02-08 00:24:00,
2013-02-07 18:29:00,27.0,23.9,29.98,North,0,5.9,8.5,88,0.00,CLR,,0.00,WeatherDisplay:10.37,2013-02-08 00:29:00,
2013-02-07 18:34:00,27.0,23.6,29.98,North,0,11.8,13.0,87,0.00,CLR,,0.00,WeatherDisplay:10.37,2013-02-08 00:34:00,
2013-02-07 18:39:00,27.0,23.6,30.01,North,0,10.5,13.8,87,0.00,CLR,,0.00,WeatherDisplay:10.37,2013-02-08 00:39:00,
2013-02-07 18:44:00,27.0,23.6,30.01,WNW,292,8.7,12.7,87,0.00,CLR,,0.00,WeatherDisplay:10.37,2013-02-08 00:44:00,
2013-02-07 18:49:00,27.0,23.3,30.01,NNW,338,9.4,10.4,86,0.00,CLR,,0.00,WeatherDisplay:10.37,2013-02-08 00:49:00,
2013-02-07 18:55:00,27.0,23.3,30.01,North,0,9.8,13.8,86,0.00,CLR,,0.00,WeatherDisplay:10.37,2013-02-08 00:55:00,
2013-02-07 19:00:00,27.0,23.3,30.01,North,0,7.4,11.5,86,0.00,CLR,,0.00,WeatherDisplay:10.37,2013-02-08 01:00:00,
2013-02-07 19:05:00,27.0,23.3,30.01,NNW,338,8.7,11.5,86,0.00,CLR,,0.00,WeatherDisplay:10.37,2013-02-08 01:05:00,
2013-02-07 19:10:00,27.0,23.1,30.01,NNW,338,10.5,12.3,85,0.00,CLR,,0.00,WeatherDisplay:10.37,2013-02-08 01:10:00,
2013-02-07 19:15:00,27.0,23.1,30.01,North,0,8.5,11.5,85,0.00,CLR,,0.00,WeatherDisplay:10.37,2013-02-08 01:15:00,
2013-02-07 19:20:00,27.0,22.8,30.01,NNW,338,10.9,12.7,84,0.00,CLR,,0.00,WeatherDisplay:10.37,2013-02-08 01:20:00,
2013-02-07 19:25:00,27.0,22.8,30.04,North,0,8.7,11.5,84,0.00,CLR,,0.00,WeatherDisplay:10.37,2013-02-08 01:25:00,
2013-02-07 19:30:00,27.0,22.8,30.04,North,0,8.5,12.7,84,0.00,CLR,,0.00,WeatherDisplay:10.37,2013-02-08 01:30:00,
2013-02-07 19:35:00,26.8,22.3,30.04,NW,315,8.5,8.7,83,0.00,CLR,,0.00,WeatherDisplay:10.37,2013-02-08 01:35:00,
2013-02-07 19:40:00,26.8,22.3,30.04,North,0,8.7,8.7,83,0.00,CLR,,0.00,WeatherDisplay:10.37,2013-02-08 01:40:00,
2013-02-07 19:45:00,26.8,22.0,30.04,NW,315,8.5,10.5,82,0.00,CLR,,0.00,WeatherDisplay:10.37,2013-02-08 01:45:00,
2013-02-07 19:50:00,26.8,22.0,30.04,North,0,9.4,10.7,82,0.00,CLR,,0.00,WeatherDisplay:10.37,2013-02-08 01:50:00,
2013-02-07 19:55:00,26.8,22.0,30.04,North,0,10.7,10.7,82,0.00,CLR,,0.00,WeatherDisplay:10.37,2013-02-08 01:55:00,
2013-02-07 20:00:00,26.8,22.0,30.04,North,0,5.9,8.1,82,0.00,CLR,,0.00,WeatherDisplay:10.37,2013-02-08 02:00:00,
2013-02-07 20:05:00,26.8,22.0,30.04,North,0,6.0,6.9,82,0.00,CLR,,0.00,WeatherDisplay:10.37,2013-02-08 02:05:00,
2013-02-07 20:10:00,26.6,21.6,30.04,NNW,338,6.9,9.2,81,0.00,CLR,,0.00,WeatherDisplay:10.37,2013-02-08 02:10:00,
2013-02-07 20:15:00,26.6,21.6,30.04,North,0,7.1,8.1,81,0.00,CLR,,0.00,WeatherDisplay:10.37,2013-02-08 02:15:00,
2013-02-07 20:20:00,26.6,21.6,30.04,NW,315,8.5,9.2,81,0.00,CLR,,0.00,WeatherDisplay:10.37,2013-02-08 02:20:00,
2013-02-07 20:25:00,26.6,21.6,30.07,NNE,22,6.0,10.4,81,0.00,CLR,,0.00,WeatherDisplay:10.37,2013-02-08 02:25:00,
2013-02-07 20:30:00,26.6,21.6,30.07,North,0,6.2,11.5,81,0.00,CLR,,0.00,WeatherDisplay:10.37,2013-02-08 02:30:00,
2013-02-07 20:35:00,26.6,21.6,30.07,NNE,22,6.0,9.2,81,0.00,CLR,,0.00,WeatherDisplay:10.37,2013-02-08 02:35:00,
2013-02-07 20:40:00,26.6,21.6,30.07,NNW,338,5.4,6.0,81,0.00,CLR,,0.00,WeatherDisplay:10.37,2013-02-08 02:40:00,
2013-02-07 20:45:00,26.6,21.6,30.07,NNE,22,6.9,10.5,81,0.00,CLR,,0.00,WeatherDisplay:10.37,2013-02-08 02:45:00,
2013-02-07 20:50:00,26.4,21.7,30.07,North,0,5.9,7.4,82,0.00,CLR,,0.00,WeatherDisplay:10.37,2013-02-08 02:50:00,
2013-02-07 20:55:00,26.4,22.0,30.07,NNW,338,3.8,4.9,83,0.00,CLR,,0.00,WeatherDisplay:10.37,2013-02-08 02:55:00,
2013-02-07 21:00:00,26.4,22.2,30.07,North,0,4.5,6.9,84,0.00,CLR,,0.00,WeatherDisplay:10.37,2013-02-08 03:00:00,
2013-02-07 21:05:00,26.4,22.5,30.07,NW,315,5.9,10.4,85,0.00,CLR,,0.00,WeatherDisplay:10.37,2013-02-08 03:05:00,
2013-02-07 21:10:00,26.2,22.3,30.07,NNW,338,4.9,6.9,85,0.00,CLR,,0.00,WeatherDisplay:10.37,2013-02-08 03:10:00,
2013-02-07 21:15:00,26.2,22.6,30.07,North,0,7.1,8.1,86,0.00,CLR,,0.00,WeatherDisplay:10.37,2013-02-08 03:15:00,
2013-02-07 21:20:00,26.2,22.9,30.07,North,0,4.9,8.1,87,0.00,CLR,,0.00,WeatherDisplay:10.37,2013-02-08 03:20:00,
2013-02-07 21:25:00,26.2,23.2,30.07,North,0,6.2,10.4,88,0.00,CLR,,0.00,WeatherDisplay:10.37,2013-02-08 03:25:00,
2013-02-07 21:30:00,26.2,23.2,30.07,NNE,22,5.4,6.9,88,0.00,CLR,,0.00,WeatherDisplay:10.37,2013-02-08 03:30:00,
2013-02-07 21:35:00,26.1,23.0,30.07,North,0,4.9,5.8,88,0.00,CLR,,0.00,WeatherDisplay:10.37,2013-02-08 03:35:00,
2013-02-07 21:40:00,26.1,23.0,30.07,North,0,3.6,4.6,88,0.00,CLR,,0.00,WeatherDisplay:10.37,2013-02-08 03:40:00,
2013-02-07 21:45:00,26.1,23.0,30.07,North,0,4.7,5.9,88,0.00,CLR,,0.00,WeatherDisplay:10.37,2013-02-08 03:45:00,
2013-02-07 21:50:00,26.1,23.0,30.07,NNW,338,4.0,5.9,88,0.00,CLR,,0.00,WeatherDisplay:10.37,2013-02-08 03:50:00,
2013-02-07 21:55:00,26.1,23.0,30.07,NNE,22,4.3,6.9,88,0.00,CLR,,0.00,WeatherDisplay:10.37,2013-02-08 03:55:00,
2013-02-07 22:00:00,26.1,23.0,30.07,NNE,22,5.9,5.9,88,0.00,CLR,,0.00,WeatherDisplay:10.37,2013-02-08 04:00:00,
2013-02-07 22:05:00,26.1,22.7,30.07,North,0,5.4,6.9,87,0.00,CLR,,0.00,WeatherDisplay:10.37,2013-02-08 04:05:00,
2013-02-07 22:10:00,26.1,22.4,30.07,NNE,22,5.4,5.8,86,0.00,CLR,,0.00,WeatherDisplay:10.37,2013-02-08 04:10:00,
2013-02-07 22:15:00,26.1,22.4,30.07,NNE,22,3.1,4.6,86,0.00,CLR,,0.00,WeatherDisplay:10.37,2013-02-08 04:15:00,
2013-02-07 22:20:00,26.1,21.9,30.07,NNE,22,4.7,5.8,84,0.00,CLR,,0.00,WeatherDisplay:10.37,2013-02-08 04:20:00,
2013-02-07 22:25:00,26.1,21.3,30.10,NNE,22,4.3,8.1,82,0.00,CLR,,0.00,WeatherDisplay:10.37,2013-02-08 04:25:00,
2013-02-07 22:30:00,26.1,21.0,30.10,NE,45,5.6,8.1,81,0.00,CLR,,0.00,WeatherDisplay:10.37,2013-02-08 04:30:00,
2013-02-07 22:35:00,26.1,21.0,30.10,NNE,22,3.8,4.6,81,0.00,CLR,,0.00,WeatherDisplay:10.37,2013-02-08 04:35:00,
2013-02-07 22:40:00,26.1,20.1,30.10,NNE,22,7.6,10.4,78,0.00,CLR,,0.00,WeatherDisplay:10.37,2013-02-08 04:40:00,
2013-02-07 22:45:00,26.1,19.5,30.10,ENE,68,7.4,7.4,76,0.00,CLR,,0.00,WeatherDisplay:10.37,2013-02-08 04:45:00,
2013-02-07 22:50:00,26.1,19.2,30.10,NNE,22,4.7,6.0,75,0.00,CLR,,0.00,WeatherDisplay:10.37,2013-02-08 04:50:00,
2013-02-07 22:55:00,26.1,18.9,30.13,NNE,22,5.9,8.1,74,0.00,CLR,,0.00,WeatherDisplay:10.37,2013-02-08 04:55:00,
2013-02-07 23:00:00,25.9,18.4,30.13,NNE,22,6.2,10.4,73,0.00,CLR,,0.00,WeatherDisplay:10.37,2013-02-08 05:00:00,
2013-02-07 23:01:00,25.9,18.4,30.13,North,0,6.4,10.4,73,0.00,CLR,,0.00,WeatherDisplay:10.37,2013-02-08 05:01:00,
2013-02-07 23:06:00,25.9,18.4,30.13,NNE,22,6.4,9.2,73,0.00,CLR,,0.00,WeatherDisplay:10.37,2013-02-08 05:06:00,
2013-02-07 23:11:00,25.9,17.8,30.13,North,0,5.6,6.9,71,0.00,CLR,,0.00,WeatherDisplay:10.37,2013-02-08 05:11:00,
2013-02-07 23:16:00,25.7,17.6,30.13,ENE,68,6.2,7.8,71,0.00,CLR,,0.00,WeatherDisplay:10.37,2013-02-08 05:16:00,
2013-02-07 23:21:00,25.7,17.9,30.13,North,0,3.3,4.6,72,0.00,CLR,,0.00,WeatherDisplay:10.37,2013-02-08 05:21:00,
2013-02-07 23:26:00,25.7,18.2,30.13,NNE,22,2.9,3.5,73,0.00,CLR,,0.00,WeatherDisplay:10.37,2013-02-08 05:26:00,
2013-02-07 23:31:00,25.7,18.6,30.13,North,0,3.8,5.8,74,0.00,CLR,,0.00,WeatherDisplay:10.37,2013-02-08 05:31:00,
2013-02-07 23:36:00,25.7,18.9,30.13,North,0,6.4,8.1,75,0.00,CLR,,0.00,WeatherDisplay:10.37,2013-02-08 05:36:00,
2013-02-07 23:41:00,25.7,19.2,30.13,North,0,4.7,5.8,76,0.00,CLR,,0.00,WeatherDisplay:10.37,2013-02-08 05:41:00,
2013-02-07 23:46:00,25.7,19.5,30.13,North,0,5.4,8.1,77,0.00,CLR,,0.00,WeatherDisplay:10.37,2013-02-08 05:46:00,
2013-02-07 23:51:00,25.7,19.5,30.13,NNE,22,4.9,5.4,77,0.00,CLR,,0.00,WeatherDisplay:10.37,2013-02-08 05:51:00,
2013-02-07 23:56:00,25.5,19.3,30.10,North,0,6.7,10.4,77,0.00,CLR,,0.00,WeatherDisplay:10.37,2013-02-08 05:56:00,